Location: Peach Mountain Observatory
(42.3967°N, 83.9367°W)
Time: 21:50:15
(UTC-05:00)

Transit 2A Rocket - Visible Passes

Search period start: 25 January 2020 00:00
Search period end: 04 February 2020 00:00
Orbit: 593 x 910 km, 66.7° (Epoch: 25 January)

Date Brightness Start Highest point End Pass type
(mag) Time Alt. Az. Time Alt. Az. Time Alt. Az.
25 Jan 4.3 05:52:33 70° SW 05:53:03 87° WNW 05:57:24 10° NNE visible
26 Jan 6.1 05:12:07 32° ENE 05:12:07 32° ENE 05:14:45 10° NE visible
26 Jan 5.9 06:52:04 17° WNW 06:53:23 19° NW 06:56:35 10° N visible
27 Jan 7.6 04:31:24 12° ENE 04:31:24 12° ENE 04:31:47 10° NE visible
27 Jan 5.5 06:11:20 30° NNW 06:11:20 30° NNW 06:14:32 10° NNE visible
28 Jan 6.2 05:30:26 23° NNE 05:30:26 23° NNE 05:32:14 10° NNE visible
29 Jan 7.3 04:49:23 12° NE 04:49:23 12° NE 04:49:45 10° NNE visible
29 Jan 6.5 06:29:19 14° NNW 06:29:19 14° NNW 06:30:56 10° N visible
30 Jan 6.7 05:48:09 14° N 05:48:09 14° N 05:49:08 10° N visible
31 Jan 7.3 05:06:56 10° NNE 05:06:56 10° NNE 05:06:59 10° NNE visible
